Flag for Brazil Weather past 2 weeks in Curitiba, Paraná, Brazil

Now
64 °F

Clear.


Feels Like: 64 °F
Forecast: 57 / 74 °F
Wind: 5 mph from Northeast

Location: Curitiba Aeroporto

Current Time: Sep 14, 2014 at 11:57:14 PM

Latest Report: Sep 14, 2014 at 11:00 PM


Visibility: 10 mi

Pressure: 30.07 "Hg

Humidity: 94%

Dew point: 63 °F

Location of CuritibaLocation

Historic Weather in Curitiba — Graph

°F

Curitiba temperature yesterday

Maximum temperature yesterday: 82 °F (at 3:00 PM)
Minimum temperature yesterday: 57 °F (at 2:00 AM)
Average temperature yesterday: 65 °F

Past Weeks' High & Low Weather Summary

 TemperatureHumidityPressure
High82 °F (Sep 10, 4:00 PM)100% (Aug 30, 11:00 PM)30.36 "Hg (Aug 30, 11:00 PM)
Low39 °F (Sep 2, 8:00 PM)25% (Sep 13, 4:00 PM)29.92 "Hg (Sep 2, 3:00 PM)
Average61 °F86%30.14 "Hg
* Reported Aug 30 10:00 PM — Sep 14 10:00 PM, Curitiba, Weather by CustomWeather, © 2014

Note: Actual official high and low records may vary slightly from our data, if they occured in-between our weather recording intervals... More about our weather records

Advertising

Curitiba weather history for previous 24 hours

 ConditionsComfort  
Time TempWeatherWind HumidityBarometerVisibility
10:00 PM
Sep 14
66 °FClear.9 mph88%30.07 "Hg10 mi
9:00 PM66 °FClear.7 mph88%30.09 "Hg10 mi
8:00 PM64 °FClear.2 mph94%30.07 "Hg10 mi
7:00 PM66 °FClear.5 mph88%30.07 "Hg10 mi
6:00 PM72 °FClear.5 mph78%30.07 "Hg10 mi
5:00 PM81 °FSunny.8 mph37%30.07 "Hg10 mi
4:00 PM82 °FSunny.8 mph32%30.07 "Hg10 mi
3:00 PM82 °FSunny.5 mph35%30.07 "Hg10 mi
2:00 PM81 °FSunny.8 mph34%30.09 "Hg10 mi
1:00 PM81 °FSunny.6 mph34%30.12 "Hg10 mi
12:00 PM79 °FSunny.8 mph45%30.15 "Hg10 mi
11:00 AM75 °FSunny.8 mph54%30.15 "Hg10 mi
10:00 AM68 °FSunny.7 mph69%30.15 "Hg10 mi
9:00 AM59 °FFog.3 mph94%30.18 "Hg3 mi
8:00 AM54 °FFog.3 mph100%N/A0 mi
7:00 AM54 °FFog.No wind100%N/A0 mi
6:00 AMN/AFog.No windN/AN/A1 mi
5:00 AM54 °FFog.2 mph100%30.15 "Hg3 mi
4:00 AM55 °FFog.3 mph100%30.15 "Hg3 mi
3:00 AM55 °FFog.6 mph100%30.15 "Hg2 mi
2:00 AM55 °FPartly cloudy.2 mph100%30.15 "Hg4 mi
1:00 AM55 °FPassing clouds.2 mph100%30.18 "HgN/A
12:00 AM57 °FPassing clouds.3 mph100%30.18 "HgN/A
11:00 PM
Sep 13
59 °FPartly cloudy.5 mph100%30.18 "HgN/A
Weather by CustomWeather, © 2014

See weather overviewHow to use our weather pages